    Observer details:
    204 Schiaparelli Observatory.  Observer L. Buzzi.  Measurer A. Aletti.  0.84-m
        f/3.5 reflector + CCD.
    246 Klet Observatory-KLENOT.  Observers M. Tichy, J. Ticha.  Measurer M.
        Tichy.  1.06-m f/2.7 reflector + 2048x2048 CCD.
    691 Steward Observatory, Kitt Peak-Spacewatch.  Observer R. A. Mastaler.
        0.9-m f/3 reflector + CCD.
    711 McDonald Observatory, Fort Davis.  Observers J. W. Kuehne, J. G. Ries, B.
        P. Roman.  Measurer J. G. Ries.  2.1-m reflector + CCD + focal reducer.
    F51 Pan-STARRS 1, Haleakala.  Observers J. Bulger, K. Chambers, T. Lowe, A.
        Schultz, M. Willman.  Measurers S. Chastel, M. Huber, Y. Ramanjooloo, R.
        Wainscoat, R. Weryk.  1.8-m Ritchey-Chretien + CCD.
    F52 Pan-STARRS 2, Haleakala.  Observers J. Bulger, K. Chambers, T. Dukes, T.
        Lowe, A. Schultz, M. Willman.  Measurers S. Chastel, M. Huber, Y.
        Ramanjooloo, R. Wainscoat, R. Weryk.  1.8-m Ritchey-Chretien + CCD.
    G96 Mt. Lemmon Survey.  Observers D. Rankin, K. W. Wierzchos, G. J. Leonard.
        Measurers D. Rankin, B. Gray, F. C. Shelly, E. J. Christensen, G. A.
        Farneth, D. C. Fuls, A. R. Gibbs, A. D. Grauer, H. Groeller, R. A.
        Kowalski, S. M. Larson, G. J. Leonard, T. A. Pruyne, R. L. Seaman, K. W.
        Wierzchos.  1.5-m reflector + 10K CCD.
    H06 iTelescope Observatory, Mayhill.  Observer H. Sato.  0.43-m f/6.8
        astrograph + CCD + f/4.5 focal reducer.
    I52 Steward Observatory, Mt. Lemmon Station.  Observers G. J. Leonard, D.
        Rankin.  Measurers E. J. Christensen, G. A. Farneth, D. C. Fuls, A. R.
        Gibbs, A. D. Grauer, H. Groeller, R. A. Kowalski, S. M. Larson, G. J.
        Leonard, T. A. Pruyne, D. Rankin, R. L. Seaman, F. C. Shelly, K. W.
        Wierzchos.  1.0-m reflector + CCD.
    J04 ESA Optical Ground Station, Tenerife.  Observer P. Ruiz.  Measurers M.
        Micheli, D. Koschny, L. Conversi, A. Knofel, M. Busch, E. Schwab.  1.0-m
        f/4.4 reflector + CCD.
    L01 Visnjan Observatory, Tican.  Observers K. Korlevic, V. Dobos, D. Pujagic,
        I. Lyon.  Measurer K. Korlevic.  1.0-m f/2.9 reflector + CCD.
    N51 GROWTH India Telescope, IAO, Hanle.  Observers K. Sharma, H. Kumar, J.
        Stanzin, V. Bhalerao, G. C. Anupama, S. Barway.  Measurers K. Sharma, B.
        T. Bolin.  0.70-m f/6.5 Corrected Dall-Kirkham + CCD.
    
    Orbital elements:
        P/2020 W1 (Rankin)                                                          
    Epoch 2020 Apr. 21.0 TT = JDT 2458960.5                                         
    T 2020 Apr. 4.25226 TT                                  Veres                   
    q   5.2877303            (2000.0)            P               Q                  
    n   0.05114869     Peri.  264.78018     +0.85973413     -0.48673055             
    a   7.1875306      Node   124.25854     +0.51042261     +0.80809219             
    e   0.2643189      Incl.   10.79210     +0.01805495     +0.33178364             
    P  19.3                                                                         
    From 71 observations 2020 Aug. 29-Nov. 26, mean residual 0".4.                  
                                                                                    
        P/2020 W1 (Rankin)                                                          
    Epoch 2039 July 31.0 TT = JDT 2466000.5                                         
    T 2039 July 31.01389 TT                                 Veres                   
    q   5.2823269            (2000.0)            P               Q                  
    n   0.05128019     Peri.  265.23891     +0.85730464     -0.49091927             
    a   7.1752374      Node   124.08225     +0.51443042     +0.80536699             
    e   0.2638115      Incl.   10.78669     +0.01975115     +0.33223830             
    P  19.2                                                                         
    From 71 observations 2020 Aug. 29-Nov. 26, mean residual 0".4.                  
                                                                                    
        P/2020 W1 (Rankin)                                                          
    Epoch 2020 Dec. 17.0 TT = JDT 2459200.5                                         
    T 2020 Apr. 4.60732 TT                                  Veres                   
    q   5.2878338            (2000.0)            P               Q                  
    n   0.05108417     Peri.  264.81224     +0.85948190     -0.48717437             
    a   7.1935817      Node   124.25610     +0.51084115     +0.80782549             
    e   0.2649234      Incl.   10.79210     +0.01822599     +0.33178173             
    P  19.3                                                                         
    From 71 observations 2020 Aug. 29-Nov. 26, mean residual 0".4.                  
                                                                                    
    Ephemeris:
    Date    TT    R. A. (2000) Decl.     Delta      r    Elong.  Phase   m1    m2
    2020 10 28    03 27 42.9 +05 40 06   4.4052  5.3468   159.4     3.7  20.5
    ...
    2020 11 12    03 20 58.5 +05 13 17   4.3857  5.3555   167.2     2.3  20.5
    ...
    2020 11 20    03 17 15.1 +05 03 15   4.4031  5.3604   164.2     2.9  20.5
    ...
    2020 11 26    03 14 33.0 +04 58 14   4.4287  5.3642   159.5     3.7  20.5
    2020 11 27    03 14 06.8 +04 57 37   4.4340  5.3649   158.6     3.8  20.5
    2020 11 28    03 13 40.9 +04 57 04   4.4396  5.3655   157.7     4.0  20.5
    ...
    2020 12 04    03 11 12.4 +04 55 12   4.4790  5.3694   152.0     4.9  20.6
    ...
    2020 12 12    03 08 17.9 +04 56 36   4.5466  5.3748   144.0     6.2  20.6
    ...
    2020 12 27    03 04 26.9 +05 11 32   4.7144  5.3852   128.8     8.2  20.7
    
    M. P. C. Staff               (C) Copyright 2020 MPC           M.P.E.C. 2020-W170
    


    Read MPEC 2020-W169 Read MPEC 2020-W171


    MPEC number:

    Enter an MPEC number in one of the following forms:

    • 1997-B01 (the full form)
    • J97B01 (the packed version of the full form)
    • B01 (the abbreviated form)